Regional Weather Roundup
Issued by NWS

Home | Current Version | Previous Version | Text Only | Print | Product List | Glossary Off
Versions: 1 2 3 4 5 6 7 8 9 10 11 12 13 14 15 16 17 18 19 20 21 22 23 24 25 26 27 28 29 30 31 32 33 34 35 36 37 38 39 40 41 42 43 44 45 46 47 48 49 50

000
ASUS45 KTFX 241610
RWRMT
MONTANA REGIONAL WEATHER ROUNDUP
NATIONAL WEATHER SERVICE GREAT FALLS MT
1000 AM MDT SUN MAY 24 2015

NOTE: "FAIR" INDICATES FEW OR NO CLOUDS BELOW 12000 FEET WITH NO
SIGNIFICANT WEATHER AND/OR OBSTRUCTIONS TO VISIBILITY.

MTZ001>007-043-241700-
WEST OF THE DIVIDE

CITY           SKY/WX    TMP DP  RH WIND       PRES   REMARKS
KALISPELL      SUNNY     64  41  42 NE8       30.03F
MISSOULA       SUNNY     58  43  57 CALM      30.05F
BUTTE          CLOUDY    48  40  73 CALM      30.08F
MULLAN PASS    SUNNY     54  36  50 CALM      30.09F
DEER LODGE       N/A     52  41  66 N7        30.12S
EUREKA           N/A     63  36  36 CALM      30.05F
HAMILTON         N/A     59  43  55 NE9       30.03F
LIBBY            N/A     61  39  44 CALM      30.04F
PLAINS           N/A     60  43  53 CALM      30.03F
RONAN            N/A     60  44  55 CALM      30.09S
$$

MTZ008-052>055-241700-
SOUTHWEST MONTANA

CITY           SKY/WX    TMP DP  RH WIND       PRES   REMARKS
BOZEMAN        CLOUDY    51  44  77 VRB5      30.05F
DILLON         CLOUDY    53  41  63 NE17      30.04F
W YELLOWSTONE  MOSUNNY   48  32  53 N10G16    30.03F
THREE FORKS      N/A     56  56 100 N9        30.04F
$$

MTZ009-010-012-014-046-048-049-054-241700-
EAST SLOPES AND CENTRAL MONTANA

CITY           SKY/WX    TMP DP  RH WIND       PRES   REMARKS
CUT BANK       SUNNY     59  46  62 CALM      30.11F
GREAT FALLS    CLOUDY    53  47  79 E6        30.09F
MALMSTROM AFB  CLOUDY    51  51 100 E5        30.10F
HELENA         CLOUDY    58  45  62 VRB5      30.06F
CONRAD           N/A     60  51  72 SW3       30.12S
$$

MTZ011-013-016-021-045-047-050-051-241700-
NORTH CENTRAL MONTANA

CITY           SKY/WX    TMP DP  RH WIND       PRES   REMARKS
HAVRE          MOSUNNY   65  45  48 E5        30.07F
LEWISTOWN      LGT RAIN  49  46  90 CALM      30.09F FOG
N BAR RANCH    DRIZZLE   46  45  93 NE7       30.11F
CHINOOK          N/A     64  46  52 CALM      30.07F
FORT BENTON      N/A     57  52  82 CALM      30.10S
$$

MTZ017>020-022>027-061-062-241700-
NORTHEAST MONTANA

CITY           SKY/WX    TMP DP  RH WIND       PRES   REMARKS
GLASGOW        PTSUNNY   60  45  57 CALM      30.05F
JORDAN           N/A     63  46  54 NE8       30.04F
SIDNEY         SUNNY     66  46  48 E6        30.04F
WOLF POINT     MOSUNNY   66  44  45 E7        30.05F
MALTA            N/A     58  45  62 CALM      30.03F
PLENTYWOOD       N/A     70  37  30 E8        30.04F
POPLAR           N/A     66  46  48 SE6       30.04F
SCOBEY           N/A     70  38  31 NE13      30.04F
$$

MTZ028>42-056>058-241700-
SOUTHCENTRAL AND SOUTHEAST MONTANA

CITY           SKY/WX    TMP DP  RH WIND       PRES   REMARKS
BAKER          CLOUDY    54  49  83 E14       30.03F
BILLINGS       CLOUDY    50  48  93 NE8       30.04S
LIVINGSTON     CLOUDY    50  45  83 E13       30.05F
MILES CITY     PTSUNNY   59  48  67 NE12      30.02F
BIG TIMBER       N/A     48  46  93 E7        30.08S
EKALAKA          N/A     50  48  92 NE9       29.99
FORSYTH          N/A     57  52  82 NE12      30.02S
LAUREL           N/A     51  45  80 N7        30.03S
ROUNDUP          N/A     50  46  85 N6        29.97F
$$

REGIONAL REPORTS...DAKOTAS

CITY           SKY/WX    TMP DP  RH WIND       PRES   REMARKS
WILLISTON      MOSUNNY   68  47  46 E3        30.04F
MINOT          SUNNY     67  47  48 E7        30.04F
DICKINSON      CLOUDY    58  51  78 E10       30.02F
BEACH          PTSUNNY   57  54  88 E12       30.04F
CROSBY         FAIR      68  39  34 S3        30.05F
WATFORD CITY   PTSUNNY   59  48  67 E6        30.03F
BISMARCK       CLOUDY    65  52  62 E12       30.02F
GRAND FORKS    PTSUNNY   70  47  43 SE6       30.04F
FARGO          CLOUDY    67  48  50 E12       30.02F
BUFFALO SD       N/A     53  51  93 NE14      29.93F
RAPID CITY     RAIN      53  52  96 E13       29.92F FOG
$$

REGIONAL REPORTS...WYOMING/IDAHO/WASHINGTON

CITY           SKY/WX    TMP DP  RH WIND       PRES   REMARKS
GILLETTE       CLOUDY    51  49  92 NE15      29.92F FOG
SHERIDAN       RAIN      50  48  93 NW9       29.99F FOG
BUFFALO WY     RAIN      47  46  97 N16G26    29.97F FOG
CODY           CLOUDY    46  43  87 N13       30.02F
YELLOWSTONE LA   N/A     43  30  60 VRB5      30.06S
IDAHO FALLS    MOSUNNY   52  47  83 NW6       29.98F
SALMON         CLOUDY    55  45  67 CALM      30.01F
BOISE          SUNNY     62  52  69 W3        29.95S
SPOKANE        PTSUNNY   65  49  56 VRB5      30.00F
$$

REGIONAL REPORTS...ALBERTA

CITY           SKY/WX    TMP DP  RH WIND       PRES   REMARKS
EDMONTON       SUNNY     72  37  28 S5        30.00F
CALGARY        CLOUDY    63  34  34 S7        30.07F
LETHBRIDGE     MOSUNNY   63  45  51 W7        30.09F
MEDICINE HAT   MOSUNNY   66  43  42 VRB2      30.08F
$$

REGIONAL REPORTS...SASKATCHEWAN

CITY           SKY/WX    TMP DP  RH WIND       PRES   REMARKS
SWIFT CURRENT  SUNNY     72  36  26 N7        30.06F
REGINA         MOSUNNY   73  45  35 N2        30.04F
SASKATOON      MOSUNNY   70  41  35 VRB3      30.05F
$$


USA.gov is the U.S. government's official web portal to all federal, state and local government web resources and services.